Location: Baumgartsau
(48.4586°N, 14.0864°E)
Time: 17:14:29
(UTC+00:00)

USA 234 - Pass Details

Date: 09 April 2020
Orbit: 1102 x 1106 km, 123.0° (Epoch: 14 May)

Event Time Altitude Azimuth Distance (km) Brightness Sun altitude
Rises 23:16:02 0° 66° (ENE) 3,923 6.5 -33.5°
Reaches altitude 10° 23:18:37 10° 60° (ENE) 2,965 5.9 -33.4°
Maximum altitude 23:24:44 44° 351° (N) 1,478 4.2 -33.3°
Drops below altitude 10° 23:30:51 10° 282° (WNW) 2,964 5.5 -33.2°
Sets 23:33:27 0° 276° (W) 3,922 6.1 -33.2°
